TimeEDT,TemperatureF,Dew PointF,Humidity,Sea Level PressureIn,VisibilityMPH,Wind Direction,Wind SpeedMPH,Gust SpeedMPH,PrecipitationIn,Events,Conditions,WindDirDegrees,DateUTC
12:15 AM,62.6,55.4,77,29.64,10.0,North,19.6,27.6,N/A,,Overcast,10,2012-10-28 04:15:00
12:35 AM,62.6,53.6,72,29.64,10.0,North,18.4,27.6,N/A,,Overcast,10,2012-10-28 04:35:00
12:55 AM,62.6,53.6,72,29.63,10.0,NNE,20.7,27.6,N/A,,Overcast,20,2012-10-28 04:55:00
1:15 AM,62.6,53.6,72,29.62,10.0,North,15.0,25.3,N/A,,Overcast,10,2012-10-28 05:15:00
1:35 AM,62.6,53.6,72,29.63,10.0,North,11.5,24.2,N/A,,Overcast,360,2012-10-28 05:35:00
1:55 AM,62.6,53.6,72,29.63,10.0,North,13.8,18.4,N/A,,Overcast,10,2012-10-28 05:55:00
2:15 AM,60.8,53.6,77,29.63,10.0,NNE,13.8,17.3,N/A,,Overcast,20,2012-10-28 06:15:00
2:35 AM,60.8,53.6,77,29.63,10.0,North,16.1,23.0,N/A,,Overcast,10,2012-10-28 06:35:00
2:55 AM,60.8,53.6,77,29.62,10.0,NNE,17.3,32.2,N/A,,Overcast,20,2012-10-28 06:55:00
3:15 AM,60.8,53.6,77,29.61,10.0,North,13.8,20.7,N/A,,Overcast,360,2012-10-28 07:15:00
3:35 AM,60.8,53.6,77,29.60,10.0,North,16.1,21.9,N/A,,Overcast,10,2012-10-28 07:35:00
3:55 AM,60.8,53.6,77,29.60,10.0,North,13.8,20.7,N/A,,Mostly Cloudy,360,2012-10-28 07:55:00
4:15 AM,60.8,53.6,77,29.60,10.0,North,10.4,-,N/A,,Mostly Cloudy,360,2012-10-28 08:15:00
4:35 AM,60.8,53.6,77,29.59,10.0,North,16.1,21.9,N/A,,Scattered Clouds,360,2012-10-28 08:35:00
4:55 AM,60.8,53.6,77,29.58,10.0,North,13.8,23.0,N/A,,Clear,360,2012-10-28 08:55:00
5:15 AM,59.0,51.8,77,29.60,10.0,North,6.9,-,N/A,,Scattered Clouds,350,2012-10-28 09:15:00
5:35 AM,59.0,51.8,77,29.59,10.0,North,11.5,19.6,N/A,,Scattered Clouds,360,2012-10-28 09:35:00
5:55 AM,59.0,51.8,77,29.59,10.0,North,15.0,21.9,N/A,,Scattered Clouds,360,2012-10-28 09:55:00
6:15 AM,59.0,51.8,77,29.58,10.0,North,12.7,18.4,N/A,,Scattered Clouds,360,2012-10-28 10:15:00
6:35 AM,59.0,51.8,77,29.59,10.0,North,11.5,27.6,N/A,,Scattered Clouds,350,2012-10-28 10:35:00
6:55 AM,59.0,50.0,72,29.59,10.0,North,13.8,23.0,N/A,,Scattered Clouds,360,2012-10-28 10:55:00
7:15 AM,59.0,50.0,72,29.59,10.0,North,11.5,21.9,N/A,,Scattered Clouds,360,2012-10-28 11:15:00
7:35 AM,59.0,50.0,72,29.59,10.0,North,13.8,21.9,N/A,,Scattered Clouds,360,2012-10-28 11:35:00
7:55 AM,59.0,48.2,67,29.59,10.0,North,13.8,24.2,N/A,,Mostly Cloudy,360,2012-10-28 11:55:00
8:15 AM,59.0,46.4,63,29.59,10.0,North,13.8,20.7,N/A,,Scattered Clouds,360,2012-10-28 12:15:00
8:35 AM,59.0,46.4,63,29.60,10.0,North,11.5,19.6,N/A,,Clear,360,2012-10-28 12:35:00
8:55 AM,59.0,46.4,63,29.59,10.0,North,13.8,19.6,N/A,,Clear,360,2012-10-28 12:55:00
9:15 AM,59.0,46.4,63,29.59,10.0,North,16.1,25.3,N/A,,Clear,360,2012-10-28 13:15:00
9:35 AM,60.8,46.4,59,29.59,10.0,North,13.8,23.0,N/A,,Scattered Clouds,360,2012-10-28 13:35:00
9:55 AM,60.8,46.4,59,29.59,10.0,North,12.7,25.3,N/A,,Mostly Cloudy,360,2012-10-28 13:55:00
10:15 AM,60.8,48.2,63,29.59,10.0,North,16.1,27.6,N/A,,Mostly Cloudy,360,2012-10-28 14:15:00
10:35 AM,60.8,48.2,63,29.59,10.0,North,10.4,20.7,N/A,,Mostly Cloudy,360,2012-10-28 14:35:00
10:55 AM,60.8,50.0,68,29.58,10.0,North,16.1,23.0,N/A,,Mostly Cloudy,10,2012-10-28 14:55:00
11:15 AM,60.8,50.0,68,29.57,10.0,North,15.0,23.0,N/A,,Mostly Cloudy,360,2012-10-28 15:15:00
11:35 AM,62.6,50.0,63,29.56,10.0,North,13.8,28.8,N/A,,Mostly Cloudy,360,2012-10-28 15:35:00
11:55 AM,62.6,50.0,63,29.56,10.0,North,15.0,24.2,N/A,,Overcast,360,2012-10-28 15:55:00
12:15 PM,62.6,50.0,63,29.56,10.0,North,13.8,20.7,N/A,,Overcast,350,2012-10-28 16:15:00
12:35 PM,62.6,50.0,63,29.56,10.0,North,12.7,24.2,N/A,,Overcast,360,2012-10-28 16:35:00
12:55 PM,62.6,50.0,63,29.56,10.0,North,12.7,23.0,N/A,,Overcast,350,2012-10-28 16:55:00
1:15 PM,62.6,48.2,59,29.55,10.0,North,18.4,27.6,N/A,,Overcast,10,2012-10-28 17:15:00
1:35 PM,62.6,50.0,63,29.55,10.0,North,8.1,21.9,N/A,,Overcast,350,2012-10-28 17:35:00
1:55 PM,62.6,48.2,59,29.55,10.0,North,11.5,17.3,N/A,,Overcast,360,2012-10-28 17:55:00
2:15 PM,62.6,48.2,59,29.54,10.0,North,9.2,19.6,N/A,,Overcast,350,2012-10-28 18:15:00
2:35 PM,62.6,48.2,59,29.54,10.0,North,11.5,19.6,N/A,,Overcast,350,2012-10-28 18:35:00
2:55 PM,62.6,48.2,59,29.54,10.0,North,12.7,24.2,N/A,,Overcast,360,2012-10-28 18:55:00
3:15 PM,62.6,46.4,55,29.54,10.0,North,12.7,21.9,N/A,,Overcast,360,2012-10-28 19:15:00
3:35 PM,62.6,46.4,55,29.54,10.0,North,10.4,21.9,N/A,,Overcast,350,2012-10-28 19:35:00
3:55 PM,62.6,46.4,55,29.54,10.0,North,9.2,21.9,N/A,,Overcast,360,2012-10-28 19:55:00
4:15 PM,62.6,46.4,55,29.54,10.0,North,13.8,21.9,N/A,,Overcast,360,2012-10-28 20:15:00
4:35 PM,62.6,46.4,55,29.54,10.0,North,15.0,20.7,N/A,,Overcast,350,2012-10-28 20:35:00
4:55 PM,60.8,46.4,59,29.54,10.0,North,9.2,17.3,N/A,,Overcast,350,2012-10-28 20:55:00
5:15 PM,60.8,46.4,59,29.54,10.0,NNW,9.2,17.3,N/A,,Overcast,340,2012-10-28 21:15:00
5:35 PM,60.8,46.4,59,29.55,10.0,North,9.2,17.3,N/A,,Overcast,350,2012-10-28 21:35:00
5:55 PM,60.8,46.4,59,29.55,10.0,North,9.2,19.6,N/A,,Overcast,360,2012-10-28 21:55:00
6:15 PM,60.8,46.4,59,29.57,10.0,NNW,6.9,-,N/A,,Overcast,340,2012-10-28 22:15:00
6:35 PM,59.0,46.4,63,29.57,10.0,North,11.5,21.9,N/A,,Overcast,350,2012-10-28 22:35:00
6:55 PM,59.0,46.4,63,29.57,10.0,North,11.5,19.6,N/A,,Overcast,350,2012-10-28 22:55:00
7:15 PM,59.0,46.4,63,29.57,10.0,NNW,12.7,19.6,N/A,,Overcast,340,2012-10-28 23:15:00
7:35 PM,59.0,48.2,67,29.57,10.0,NNW,10.4,18.4,N/A,,Overcast,340,2012-10-28 23:35:00
7:55 PM,59.0,48.2,67,29.57,10.0,NNW,6.9,20.7,N/A,,Overcast,340,2012-10-28 23:55:00
8:15 PM,57.2,50.0,77,29.56,10.0,NNW,8.1,-,N/A,,Overcast,340,2012-10-29 00:15:00
8:35 PM,57.2,50.0,77,29.56,10.0,North,9.2,19.6,N/A,,Overcast,350,2012-10-29 00:35:00
8:55 PM,57.2,50.0,77,29.56,10.0,NNW,9.2,19.6,N/A,,Overcast,330,2012-10-29 00:55:00
9:15 PM,57.2,50.0,77,29.56,10.0,North,15.0,27.6,N/A,,Overcast,350,2012-10-29 01:15:00
9:35 PM,55.4,50.0,82,29.57,10.0,North,10.4,23.0,N/A,,Overcast,350,2012-10-29 01:35:00
9:55 PM,53.6,51.8,94,29.58,7.0,North,9.2,23.0,N/A,,Overcast,350,2012-10-29 01:55:00
10:15 PM,53.6,51.8,94,29.57,7.0,NNW,8.1,-,N/A,,Overcast,340,2012-10-29 02:15:00
10:35 PM,53.6,51.8,94,29.57,10.0,North,10.4,-,0.01,,Overcast,350,2012-10-29 02:35:00
10:55 PM,53.6,51.8,94,29.56,7.0,NNW,6.9,20.7,0.01,,Overcast,340,2012-10-29 02:55:00
11:15 PM,53.6,51.8,94,29.56,7.0,NNW,9.2,-,N/A,,Overcast,340,2012-10-29 03:15:00
11:55 PM,53.6,53.6,100,29.55,7.0,NNW,4.6,-,N/A,,Overcast,340,2012-10-29 03:55:00